Wetbulb
70.11 69.86 69.82 70.54 70.38 70.20 69.40 68.56 68.74 68.58 70.60 71.40 70.69 70.60 70.57 69.98 69.21 65.63 61.84 59.02 56.94 55.98
70.48 70.43 70.01 70.55 71.18 70.96 70.21 69.06 68.44 67.76 68.71 70.18 70.35 69.05 66.54 63.35 58.29 57.81 57.75 56.74 56.92 55.80
69.92 70.38 70.48 70.48 70.31 70.30 69.03 68.56 70.06 67.42 68.64 68.94 67.91 65.67 63.12 61.92 58.14 54.50 55.91 55.22 53.76 52.38
68.78 69.81 70.38 70.17 69.59 68.81 67.69 68.07 68.86 67.27 67.47 66.67 65.28 64.06 62.46 59.36 54.63 53.99 52.75 51.83 51.29 49.76
67.25 68.87 69.46 69.85 68.73 67.89 66.59 65.06 66.79 65.52 65.12 64.45 63.47 59.80 57.22 52.98 51.78 51.06 48.02 46.71 48.19 47.00
65.76 67.34 67.69 67.85 67.21 64.70 64.30 62.72 63.00 63.31 62.50 61.17 57.29 54.36 51.83 49.60 47.60 48.02 45.48 47.67 46.83 44.72
66.57 67.06 66.65 62.29 61.04 61.30 60.81 60.05 58.28 59.10 59.41 57.85 54.50 51.18 48.60 45.77 44.88 47.57 45.69 43.49 46.22 48.17
64.54 65.15 63.28 60.20 59.35 56.87 56.15 57.47 55.58 55.79 55.74 55.30 53.38 48.98 47.41 47.63 43.62 45.50 42.36 45.83 46.60 48.00
57.47 57.57 56.53 54.37 53.32 52.12 52.92 52.22 52.29 50.86 50.40 49.36 46.62 41.49 41.57 45.26 46.29 43.14 41.44 42.23 43.76 41.61
57.84 52.27 51.07 51.54 50.83 50.22 50.46 50.22 49.72 48.66 48.71 47.13 44.63 39.02 39.44 39.72 42.92 40.95 43.11 41.74 43.70 42.03
56.06 49.82 39.15 47.02 45.80 44.17 48.82 48.12 48.15 48.04 48.21 46.88 45.30 38.83 38.32 38.51 43.00 43.08 43.22 43.87 41.80 42.00
54.95 51.49 41.32 39.51 38.24 38.06 39.15 39.51 39.33 45.08 44.20 41.85 40.33 37.51 36.99 39.40 39.15 37.15 36.97 37.78 41.81 42.64
54.69 52.93 46.10 40.93 39.33 40.96 42.95 37.70 40.24 37.34 38.60 38.92 36.25 36.39 37.05 39.82 40.32 38.16 36.37 38.94 39.80 36.83
53.86 52.76 47.76 41.43 40.24 42.57 41.77 40.02 39.02 37.24 40.53 41.43 39.15 37.33 36.79 37.87 41.46 39.56 38.71 37.80 37.95 38.41
MSLP
1001.83 1002.14 1002.46 1002.77 1003.06 1003.65 1004.20 1005.20 1006.03 1006.71 1007.28 1007.87 1008.51 1009.35 1010.17 1010.98 1011.48 1012.33 1013.23 1013.91 1014.56 1015.04
1000.91 1001.21 1001.49 1001.84 1002.40 1002.99 1003.86 1004.23 1005.33 1005.96 1006.69 1007.26 1007.90 1008.81 1009.87 1010.90 1011.86 1012.57 1013.30 1014.12 1014.99 1015.26
1000.40 1000.62 1001.18 1001.75 1001.84 1002.45 1003.28 1004.04 1004.55 1005.51 1005.90 1006.68 1007.62 1008.53 1009.56 1010.49 1011.68 1012.33 1013.32 1014.19 1015.13 1015.57
999.76 999.75 1000.37 1001.10 1001.68 1002.28 1002.82 1003.46 1003.97 1004.93 1005.44 1006.21 1007.12 1008.00 1009.10 1010.30 1011.50 1012.39 1013.45 1014.40 1015.02 1015.64
999.34 999.42 999.64 1000.29 1000.96 1001.86 1002.39 1003.20 1003.90 1004.89 1005.44 1006.07 1006.81 1007.73 1009.02 1010.27 1011.32 1012.34 1013.39 1014.53 1015.10 1015.94
999.26 999.26 999.54 1000.13 1000.78 1001.56 1002.36 1003.08 1003.70 1004.30 1004.96 1005.80 1007.00 1007.94 1009.31 1010.31 1011.52 1012.49 1013.29 1013.86 1014.54 1015.06
999.11 999.33 999.82 1000.50 1001.16 1001.63 1002.45 1003.03 1003.57 1004.26 1004.84 1005.94 1007.03 1007.99 1009.16 1010.36 1011.67 1012.53 1013.54 1014.23 1015.06 1015.02
999.80 999.99 1000.27 1000.66 1001.07 1001.51 1002.19 1002.76 1003.48 1004.24 1005.07 1006.08 1006.92 1007.80 1008.85 1010.05 1011.65 1012.47 1013.65 1014.20 1014.89 1015.31
1000.48 1000.46 1000.50 1000.87 1001.20 1001.59 1002.10 1002.88 1003.48 1004.37 1005.17 1006.32 1007.17 1007.91 1008.75 1009.77 1011.30 1012.52 1013.35 1014.25 1015.31 1016.20
1000.56 1000.86 1000.90 1001.06 1001.46 1001.86 1002.33 1002.94 1003.51 1004.33 1005.17 1006.30 1007.51 1008.44 1009.24 1010.16 1011.25 1012.24 1013.15 1014.40 1015.13 1015.90
1000.46 1000.97 1001.17 1001.35 1001.69 1002.18 1002.68 1003.04 1003.69 1004.49 1005.09 1006.14 1007.85 1008.83 1009.43 1010.41 1011.25 1012.33 1013.10 1014.13 1014.89 1015.51
1000.19 1000.79 1001.33 1001.60 1001.95 1002.45 1002.94 1003.63 1003.84 1004.64 1005.56 1006.49 1008.14 1008.91 1009.56 1010.35 1011.56 1012.73 1013.84 1014.35 1014.97 1015.60
999.83 1000.30 1001.16 1001.74 1002.16 1002.72 1003.26 1003.88 1004.73 1005.22 1006.04 1007.17 1008.26 1009.21 1009.67 1010.19 1011.47 1012.69 1013.88 1014.83 1015.33 1015.88
999.56 999.83 1000.93 1001.71 1002.17 1002.72 1003.63 1004.21 1005.27 1006.23 1006.59 1007.49 1008.18 1009.42 1009.87 1010.44 1011.11 1012.30 1013.36 1014.26 1015.06 1016.11
Wind_Speed
20 14 14 16 13 13 13 13 15 15 15 17 15 13 14 11 10 10 8 8 6 6
16 18 16 18 15 12 13 11 15 16 15 16 16 16 15 10 11 10 8 8 8 6
16 17 17 14 17 15 11 15 17 15 15 16 17 16 15 12 12 11 9 9 10 8
15 16 16 14 16 14 12 14 15 14 16 18 18 16 14 13 13 12 12 10 10 9
15 15 16 16 15 13 13 11 15 15 15 17 16 16 16 14 12 14 13 11 10 8
13 15 14 13 11 12 13 12 12 13 14 16 15 15 13 14 13 12 12 11 11 12
10 11 7 8 11 12 12 14 12 12 12 15 16 16 15 15 13 15 10 10 8 11
8 9 10 12 12 10 11 12 12 12 11 15 16 13 17 15 14 14 11 10 9 9
4 5 7 7 9 10 11 11 12 13 14 15 9 15 18 18 15 13 11 10 10 9
8 4 5 7 8 10 12 12 12 13 14 13 12 19 20 18 12 12 12 12 12 10
9 6 3 6 7 6 9 12 12 12 13 13 12 20 19 16 13 11 12 12 11 10
9 7 6 5 6 4 5 4 6 11 13 14 16 21 20 17 12 11 9 6 9 10
9 9 8 7 9 4 8 6 7 7 11 16 16 21 19 18 11 13 10 11 9 6
10 8 8 8 6 10 10 11 9 9 10 14 17 17 18 15 12 11 11 10 9 8
Wind_Direction
224 221 222 222 215 217 204 200 195 195 196 195 187 188 190 198 193 173 178 157 146 160
221 221 219 222 216 213 209 194 187 186 193 193 188 181 177 174 157 153 146 147 156 149
223 224 221 216 215 209 193 190 196 185 185 184 183 176 173 166 167 148 152 156 160 155
230 224 219 214 216 207 184 193 187 187 187 183 181 172 171 167 152 147 149 149 157 157
238 229 219 214 206 191 181 170 186 188 191 187 178 163 161 148 145 148 146 144 146 146
243 231 224 213 187 169 172 173 184 184 181 174 164 155 147 137 137 142 140 154 149 152
252 242 202 151 165 166 177 173 168 176 177 166 161 152 145 138 137 145 145 147 168 168
261 224 189 175 173 164 168 171 162 166 164 165 164 158 144 143 141 142 142 147 169 167
256 216 178 163 160 155 155 154 154 156 155 158 155 142 143 144 152 143 141 137 158 139
267 213 176 163 159 160 166 161 161 156 153 150 135 136 135 137 140 138 151 153 162 152
263 224 189 168 170 169 167 163 158 156 153 137 147 146 136 133 133 142 136 157 149 159
264 227 188 180 151 146 146 160 153 146 140 142 150 146 140 128 120 115 123 117 146 157
263 242 191 168 166 200 148 121 129 122 133 148 144 149 142 136 139 136 136 141 142 131
259 229 187 162 158 154 152 137 134 128 139 151 149 149 145 146 145 148 149 148 149 149